Location: St. Louis
(38.6270°N, 90.1994°W)
Time: 08:45:13
(UTC-05:00)

Altair - Pass Details

Date: 02 July 2022
Orbit: 1502 x 1682 km, 47.2° (Epoch: 16 August)

Event Time Altitude Azimuth Distance (km) Brightness Sun altitude
Rises 04:17:10 0° 176° (S) 4,629 9.6 -13.7°
Reaches altitude 10° 04:21:53 10° 156° (SSE) 3,643 9.3 -13.0°
Maximum altitude 04:26:38 15° 123° (ESE) 3,241 9.4 -12.3°
Drops below altitude 10° 04:31:21 10° 92° (E) 3,661 10.2 -11.7°
Sets 04:36:04 0° 71° (ENE) 4,665 11.4 -11.0°
